| time (UTC) | temp C | wind direction | speed KPH | gust KPH | rain 1hr cm | rain 24hr cm | rain mn cm | humidity % | barometer mb |
| 20260506150704 | 17 | 261 | 9.7 | 16.1 | 0.00 | 0.00 | 0.00 | 35 | 1016.4 |
| 20260506145659 | 16 | 300 | 6.4 | 16.1 | 0.00 | 0.00 | 0.00 | 35 | 1016.4 |
| 20260506144658 | 16 | 282 | 8.0 | 17.7 | 0.00 | 0.00 | 0.00 | 35 | 1016.4 |
| 20260506143654 | 16 | 240 | 3.2 | 14.5 | 0.00 | 0.00 | 0.00 | 36 | 1016.4 |
| 20260506141657 | 16 | 234 | 3.2 | 8.0 | 0.00 | 0.00 | 0.00 | 37 | 1016.4 |
| 20260506140655 | 16 | 275 | 3.2 | 9.7 | 0.00 | 0.00 | 0.00 | 37 | 1016.2 |
| 20260506135651 | 16 | 269 | 3.2 | 4.8 | 0.00 | 0.00 | 0.00 | 40 | 1016.1 |
| 20260506134656 | 15 | 145 | 0.0 | 1.6 | 0.00 | 0.00 | 0.00 | 43 | 1016.1 |
| 20260506133650 | 15 | 101 | 1.6 | 3.2 | 0.00 | 0.00 | 0.00 | 46 | 1016.0 |
| 20260506132658 | 13 | 108 | 0.0 | 1.6 | 0.00 | 0.00 | 0.00 | 50 | 1016.0 |
| 20260506131652 | 12 | 109 | 0.0 | 1.6 | 0.00 | 0.00 | 0.00 | 52 | 1015.8 |
| 20260506130652 | 11 | 109 | 0.0 | 1.6 | 0.00 | 0.00 | 0.00 | 53 | 1015.8 |
| 20260506125649 | 11 | 113 | 0.0 | 3.2 | 0.00 | 0.00 | 0.00 | 53 | 1015.6 |
| 20260506124703 | 11 | 53 | 1.6 | 4.8 | 0.00 | 0.00 | 0.00 | 54 | 1015.5 |
| 20260506123701 | 10 | 105 | 3.2 | 4.8 | 0.00 | 0.00 | 0.00 | 56 | 1015.5 |
| 20260506115659 | 10 | 101 | 0.0 | 3.2 | 0.00 | 0.00 | 0.00 | 58 | 1015.1 |
| 20260506114656 | 10 | 90 | 3.2 | 4.8 | 0.00 | 0.00 | 0.00 | 57 | 1015.0 |
| 20260506113704 | 10 | 80 | 1.6 | 4.8 | 0.00 | 0.00 | 0.00 | 57 | 1014.9 |
| 20260506112703 | 10 | 130 | 4.8 | 8.0 | 0.00 | 0.00 | 0.00 | 56 | 1014.8 |
| 20260506111700 | 10 | 13 | 0.0 | 3.2 | 0.00 | 0.00 | 0.00 | 55 | 1014.7 |
| 20260506110657 | 11 | 16 | 0.0 | 1.6 | 0.00 | 0.00 | 0.00 | 55 | 1014.7 |
| 20260506105704 | 11 | 17 | 0.0 | 0.0 | 0.00 | 0.00 | 0.00 | 54 | 1014.7 |
| 20260506104658 | 11 | 18 | 0.0 | 3.2 | 0.00 | 0.00 | 0.00 | 53 | 1014.6 |
| 20260506103657 | 11 | 18 | 0.0 | 4.8 | 0.00 | 0.00 | 0.00 | 53 | 1014.5 |
| 20260506102653 | 11 | 16 | 4.8 | 6.4 | 0.00 | 0.00 | 0.00 | 53 | 1014.3 |
| 20260506101648 | 11 | 17 | 4.8 | 6.4 | 0.00 | 0.00 | 0.00 | 54 | 1014.2 |
| 20260506095704 | 11 | 132 | 1.6 | 6.4 | 0.00 | 0.00 | 0.00 | 55 | 1014.8 |
| 20260506094655 | 11 | 148 | 1.6 | 6.4 | 0.00 | 0.00 | 0.00 | 55 | 1014.7 |
| 20260506093649 | 11 | 155 | 4.8 | 6.4 | 0.00 | 0.00 | 0.00 | 55 | 1014.6 |
| 20260506092644 | 11 | 108 | 1.6 | 4.8 | 0.00 | 0.00 | 0.00 | 53 | 1014.5 |
| 20260506091658 | 11 | 111 | 3.2 | 4.8 | 0.00 | 0.00 | 0.00 | 51 | 1014.4 |
| 20260506090654 | 12 | 153 | 1.6 | 3.2 | 0.00 | 0.00 | 0.00 | 50 | 1014.4 |
| 20260506085652 | 12 | 175 | 0.0 | 3.2 | 0.00 | 0.00 | 0.00 | 49 | 1014.4 |
| 20260506084645 | 12 | 179 | 0.0 | 6.4 | 0.00 | 0.00 | 0.00 | 48 | 1014.3 |
| 20260506083701 | 12 | 177 | 3.2 | 8.0 | 0.00 | 0.00 | 0.00 | 48 | 1014.2 |
| 20260506082651 | 12 | 173 | 3.2 | 8.0 | 0.00 | 0.00 | 0.00 | 47 | 1014.3 |
| 20260506080646 | 13 | 128 | 4.8 | 6.4 | 0.00 | 0.00 | 0.00 | 45 | 1014.3 |
| 20260506072659 | 14 | 192 | 1.6 | 4.8 | 0.00 | 0.00 | 0.00 | 39 | 1013.8 |
| 20260506071653 | 14 | 209 | 1.6 | 4.8 | 0.00 | 0.00 | 0.00 | 38 | 1013.7 |
| 20260506070657 | 15 | 196 | 3.2 | 6.4 | 0.00 | 0.00 | 0.00 | 37 | 1013.7 |
| 20260506061656 | 15 | 214 | 4.8 | 11.3 | 0.00 | 0.00 | 0.00 | 33 | 1013.3 |
| 20260506060647 | 16 | 190 | 3.2 | 8.0 | 0.00 | 0.00 | 0.00 | 33 | 1013.3 |
| 20260506050653 | 17 | 216 | 3.2 | 8.0 | 0.00 | 0.00 | 0.00 | 27 | 1012.6 |
| 20260506044643 | 18 | 223 | 8.0 | 14.5 | 0.00 | 0.00 | 0.00 | 26 | 1012.4 |
| 20260506043638 | 18 | 182 | 4.8 | 12.9 | 0.00 | 0.00 | 0.00 | 26 | 1012.4 |
| 20260506042657 | 18 | 201 | 4.8 | 11.3 | 0.00 | 0.00 | 0.00 | 26 | 1012.3 |
| 20260506041652 | 18 | 187 | 4.8 | 12.9 | 0.00 | 0.00 | 0.00 | 25 | 1012.2 |
| 20260506040647 | 18 | 210 | 8.0 | 14.5 | 0.00 | 0.00 | 0.00 | 24 | 1012.1 |
| 20260506035642 | 19 | 205 | 6.4 | 12.9 | 0.00 | 0.00 | 0.00 | 24 | 1011.9 |
| 20260506033654 | 19 | 210 | 4.8 | 11.3 | 0.00 | 0.00 | 0.00 | 25 | 1011.6 |
| 20260506032642 | 20 | 202 | 4.8 | 9.7 | 0.00 | 0.00 | 0.00 | 25 | 1011.3 |
| 20260506030642 | 20 | 209 | 4.8 | 8.0 | 0.00 | 0.00 | 0.00 | 24 | 1011.1 |
| 20260506025653 | 20 | 248 | 4.8 | 12.9 | 0.00 | 0.00 | 0.00 | 24 | 1010.9 |
| 20260506024648 | 20 | 244 | 4.8 | 12.9 | 0.00 | 0.00 | 0.00 | 23 | 1010.7 |
| 20260506023640 | 21 | 248 | 8.0 | 16.1 | 0.00 | 0.00 | 0.00 | 23 | 1010.7 |
| 20260506022648 | 21 | 229 | 11.3 | 17.7 | 0.00 | 0.00 | 0.00 | 23 | 1010.5 |
| 20260506021643 | 21 | 239 | 9.7 | 16.1 | 0.00 | 0.00 | 0.00 | 23 | 1010.5 |
| 20260506020654 | 21 | 247 | 6.4 | 12.9 | 0.00 | 0.00 | 0.00 | 23 | 1010.3 |
| 20260506015650 | 21 | 242 | 6.4 | 20.9 | 0.00 | 0.00 | 0.00 | 23 | 1010.2 |
| 20260506014645 | 21 | 267 | 9.7 | 20.9 | 0.00 | 0.00 | 0.00 | 23 | 1010.0 |
| 20260506011647 | 22 | 261 | 11.3 | 22.5 | 0.00 | 0.00 | 0.00 | 28 | 1010.7 |
| 20260506010636 | 22 | 255 | 11.3 | 20.9 | 0.00 | 0.00 | 0.00 | 29 | 1010.7 |
| 20260506005647 | 22 | 276 | 11.3 | 25.7 | 0.00 | 0.00 | 0.00 | 28 | 1010.6 |
| 20260506004635 | 22 | 242 | 14.5 | 20.9 | 0.00 | 0.00 | 0.00 | 27 | 1010.5 |
| 20260506003651 | 22 | 295 | 8.0 | 16.1 | 0.00 | 0.00 | 0.00 | 28 | 1010.5 |
| 20260506002641 | 22 | 261 | 8.0 | 20.9 | 0.00 | 0.00 | 0.00 | 27 | 1010.5 |
| 20260506001639 | 22 | 252 | 9.7 | 20.9 | 0.00 | 0.00 | 0.00 | 28 | 1010.5 |
| 20260506000653 | 22 | 225 | 12.9 | 24.1 | 0.00 | 0.00 | 0.00 | 27 | 1010.5 |
| 20260505234640 | 23 | 244 | 11.3 | 22.5 | 0.00 | 0.00 | 0.00 | 27 | 1010.6 |
| 20260505233651 | 23 | 259 | 16.1 | 30.6 | 0.00 | 0.00 | 0.00 | 27 | 1010.6 |
| 20260505231649 | 23 | 260 | 17.7 | 27.4 | 0.00 | 0.00 | 0.00 | 27 | 1010.7 |
| 20260505230646 | 23 | 236 | 12.9 | 27.4 | 0.00 | 0.00 | 0.00 | 28 | 1010.7 |
| 20260505225641 | 23 | 244 | 20.9 | 30.6 | 0.00 | 0.00 | 0.00 | 27 | 1010.9 |
| 20260505224650 | 23 | 207 | 19.3 | 32.2 | 0.00 | 0.00 | 0.00 | 28 | 1010.9 |
| 20260505223644 | 23 | 241 | 14.5 | 35.4 | 0.00 | 0.00 | 0.00 | 28 | 1011.0 |
| 20260505222650 | 23 | 246 | 19.3 | 27.4 | 0.00 | 0.00 | 0.00 | 27 | 1011.1 |
| 20260505221638 | 23 | 231 | 12.9 | 29.0 | 0.00 | 0.00 | 0.00 | 29 | 1011.2 |
| 20260505220636 | 22 | 244 | 16.1 | 30.6 | 0.00 | 0.00 | 0.00 | 28 | 1011.5 |
| 20260505215646 | 22 | 257 | 24.1 | 35.4 | 0.00 | 0.00 | 0.00 | 28 | 1011.6 |
| 20260505214641 | 22 | 248 | 22.5 | 32.2 | 0.00 | 0.00 | 0.00 | 29 | 1011.7 |
| 20260505213637 | 22 | 236 | 16.1 | 30.6 | 0.00 | 0.00 | 0.00 | 32 | 1011.9 |
| 20260505212631 | 22 | 200 | 20.9 | 29.0 | 0.00 | 0.00 | 0.00 | 33 | 1012.1 |
| 20260505211643 | 22 | 215 | 16.1 | 30.6 | 0.00 | 0.00 | 0.00 | 35 | 1012.3 |
| 20260505210634 | 21 | 227 | 12.9 | 24.1 | 0.00 | 0.00 | 0.00 | 36 | 1012.5 |
| 20260505204646 | 21 | 217 | 16.1 | 38.6 | 0.00 | 0.00 | 0.00 | 36 | 1013.0 |
| 20260505203643 | 21 | 256 | 17.7 | 33.8 | 0.00 | 0.00 | 0.00 | 37 | 1013.1 |
| 20260505202639 | 20 | 258 | 20.9 | 30.6 | 0.00 | 0.00 | 0.00 | 38 | 1013.2 |
| 20260505200631 | 20 | 242 | 25.7 | 37.0 | 0.00 | 0.00 | 0.00 | 38 | 1013.3 |
| 20260505195632 | 20 | 253 | 20.9 | 38.6 | 0.00 | 0.00 | 0.00 | 40 | 1013.5 |
| 20260505194645 | 20 | 235 | 22.5 | 41.8 | 0.00 | 0.00 | 0.00 | 39 | 1013.5 |
| 20260505192636 | 18 | 263 | 22.5 | 41.8 | 0.00 | 0.00 | 0.00 | 45 | 1013.8 |
| 20260505190646 | 18 | 234 | 25.7 | 46.7 | 0.00 | 0.00 | 0.00 | 45 | 1014.0 |
| 20260505185639 | 18 | 243 | 22.5 | 51.5 | 0.00 | 0.00 | 0.00 | 42 | 1014.5 |
| 20260505184638 | 18 | 257 | 27.4 | 43.5 | 0.00 | 0.00 | 0.00 | 40 | 1014.6 |
| 20260505183644 | 18 | 250 | 27.4 | 43.5 | 0.00 | 0.00 | 0.00 | 40 | 1014.4 |
| 20260505182639 | 18 | 243 | 29.0 | 38.6 | 0.00 | 0.00 | 0.00 | 39 | 1014.0 |
| 20260505181630 | 19 | 256 | 27.4 | 38.6 | 0.00 | 0.00 | 0.00 | 39 | 1013.9 |
| 20260505180643 | 19 | 280 | 27.4 | 40.2 | 0.00 | 0.00 | 0.00 | 38 | 1014.0 |
| 20260505174629 | 20 | 267 | 24.1 | 33.8 | 0.00 | 0.00 | 0.00 | 35 | 1014.0 |
| 20260505173627 | 20 | 248 | 20.9 | 30.6 | 0.00 | 0.00 | 0.00 | 34 | 1013.7 |
| 20260505171636 | 20 | 225 | 8.0 | 27.4 | 0.00 | 0.00 | 0.00 | 33 | 1013.7 |
| 20260505170636 | 21 | 241 | 16.1 | 29.0 | 0.00 | 0.00 | 0.00 | 32 | 1013.5 |
| 20260505165626 | 20 | 252 | 17.7 | 30.6 | 0.00 | 0.00 | 0.00 | 33 | 1013.5 |
| 20260505164640 | 20 | 206 | 12.9 | 22.5 | 0.00 | 0.00 | 0.00 | 36 | 1013.4 |
| 20260505162627 | 19 | 219 | 11.3 | 17.7 | 0.00 | 0.00 | 0.00 | 37 | 1013.5 |
| 20260505161642 | 18 | 238 | 8.0 | 16.1 | 0.00 | 0.00 | 0.00 | 40 | 1013.3 |
| 20260505160631 | 18 | 273 | 4.8 | 9.7 | 0.00 | 0.00 | 0.00 | 39 | 1013.3 |
| 20260505152633 | 17 | 272 | 6.4 | 14.5 | 0.00 | 0.00 | 0.00 | 43 | 1013.6 |
| 20260505151639 | 17 | 261 | 4.8 | 16.1 | 0.00 | 0.00 | 0.00 | 43 | 1013.6 |